Regional Weather Roundup
Issued by NWS

Home | Current Version | Previous Version | Text Only | Print | Product List | Glossary On
Versions: 1 2 3 4 5 6 7 8 9 10 11 12 13 14 15 16 17 18 19 20 21 22 23 24 25 26 27 28 29 30 31 32 33 34 35 36 37 38 39 40 41 42 43 44 45 46 47 48 49 50
000
ASUS43 KDMX 292101
RWRIA

WEATHER ROUNDUP FOR IOWA
NATIONAL WEATHER SERVICE DES MOINES IA
400 PM CDT WED MAR 29 2017

NOTE: "FAIR" INDICATES FEW OR NO CLOUDS BELOW 12,000 FEET WITH NO
SIGNIFICANT WEATHER AND/OR OBSTRUCTIONS TO VISIBILITY.

* - THESE STATIONS ARE NOT NWS STATIONS...THUS NOT UNDER NWS
QUALITY CONTROL.  THEY ALSO DO NOT REPORT WEATHER SUCH
AS PRECIPITATION OR FOG.

IAZ001>003-012>014-020>022-031>034-043>046-292200-
   NORTHWEST IOWA

CITY           SKY/WX    TMP DP  RH WIND       PRES   REMARKS
CARROLL *      RAIN      43  41  93 NE24G35   29.92S VSB 1
CHEROKEE *     RAIN      40  39  97 E25G32    30.01F WCI  30
DENISON *      LGT RAIN  41  41 100 NE17G30   29.94S
LE MARS *      LGT RAIN  43  39  87 NE18G31   30.01F
ORANGE CITY *  LGT RAIN  41  39  93 E22G32    30.01F
SHELDON *      MIX PCPN  41  37  87 E32       30.02F
SIOUX CITY     LGT RAIN  43  41  93 E21G35    29.94F FOG
SPENCER        LGT RAIN  41  38  89 E28G39    30.05F
STORM LAKE *   LGT RAIN  39  39 100 NE29G36   29.98F WCI  28
$$

IAZ055>058-069>071-079>083-090>094-292200-
   SOUTHWEST IOWA

CITY           SKY/WX    TMP DP  RH WIND       PRES   REMARKS
ATLANTIC *     RAIN      43  43 100 NE17G25   29.86F VSB 3/4
AUDUBON *      RAIN      43  39  87 NE17G26   29.90S
CLARINDA *     CLOUDY    46  46 100 NE13G21   29.82S FOG
COUNCIL BLFS * PTSUNNY   41  41 100 NE17G29   29.86F FOG
CRESTON *      CLOUDY    45  45 100 E22G32    29.81F FOG
HARLAN  *      MIX PCPN  43  43 100 NE20      29.91F VSB 1
LAMONI         CLOUDY    49  47  93 E10       29.81R
RED OAK *      MIX PCPN  43  43 100 NE18      29.83F VSB 3/4
SHENANDOAH *   MIX PCPN  45  45 100 NE17      29.81F VSB 3/4
$$

IAZ047>049-059>061-072>074-084-292200-
   CENTRAL IOWA

CITY           SKY/WX    TMP DP  RH WIND       PRES   REMARKS
AMES           RAIN      42  42 100 E18G31    29.93F FOG
ANKENY *       LGT RAIN  43  41  93 E15G29    29.92R
BOONE *        LGT RAIN  41  41 100 NE29G38   29.91F
CHARITON *     CLOUDY    46  45  93 E17       29.84F
DES MOINES     LGT RAIN  46  43  89 E20G28    29.89S FOG
GRINNELL*      RAIN      43  41  93 E25G31    29.93S
MARSHALLTOWN   RAIN      42  39  89 NE29G36   29.94F FOG
NEWTON *       CLOUDY    43  41  93 E26G35    29.88F FOG
PELLA *        CLOUDY    45  44  95 E15G24    29.89F
PERRY *        LGT RAIN  43  42  95 E23G32    29.89F
$$

IAZ004>006-015-016-023>025-035-036-292200-
   NORTH CENTRAL IOWA

CITY           SKY/WX    TMP DP  RH WIND       PRES   REMARKS
ALGONA *       LGT RAIN  41  41 100 E24G41    30.05F
CLARION *      CLOUDY    41  41 100 E31G40    30.00F FOG
ESTHERVILLE    LGT RAIN  41  39  93 E22G31    30.07F
FORT DODGE *   CLOUDY    39  36  87 NE26G32   29.99F WCI  28
MASON CITY     LGT RAIN  42  38  85 E23G30    30.10F
FOREST CITY *  LGT RAIN  41  37  87 E21G29    30.08F
WEBSTER CITY * LGT RAIN  41  39  93 NE28G43   29.95F
IOWA FALLS *   LGT RAIN  41  39  90 NE22G35   29.99F
$$

IAZ007>011-017>019-026>030-037>042-050>054-066-292200-
   NORTHEAST IOWA

CITY           SKY/WX    TMP DP  RH WIND       PRES   REMARKS
CEDAR RAPIDS   RAIN      44  42  93 E21G29    29.98F FOG
CHARLES CITY * LGT RAIN  41  41 100 E14G21    30.13R
CLINTON *      LGT RAIN  46  40  79 E21       30.01F
DECORAH *      DRIZZLE   43  36  75 E12G24    30.13R
DUBUQUE        CLOUDY    46  34  62 E16G26    30.07F
MONTICELLO *   CLOUDY    46  37  71 E16       30.04R HAZE
OELWEIN *      LGT RAIN  43  41  93 NE22      30.07S
WATERLOO       LGT RAIN  44  38  79 NE25G32   30.04F
$$

IAZ064-065-067-068-078-292200-
   EAST CENTRAL IOWA

CITY           SKY/WX    TMP DP  RH WIND       PRES   REMARKS
DAVENPORT      LGT RAIN  46  41  82 E18G28    29.98F
IOWA CITY      LGT RAIN  46  42  86 E14G28    29.98F FOG
MUSCATINE *    CLOUDY    48  45  87 E14G21    29.97F
QUAD CITIES    CLOUDY    48  42  80 E23       29.97F
$$

IAZ062-063-075>077-085>089-095>099-292200-
   SOUTHEAST IOWA

CITY           SKY/WX    TMP DP  RH WIND       PRES   REMARKS
BURLINGTON     RAIN      48  48 100 E14G26    29.92F FOG
FAIRFIELD *    CLOUDY    46  46 100 E23       29.89F FOG
FORT MADISON * LGT RAIN  48  46  93 E16G28    29.89F
KEOKUK *       CLOUDY    48  46  93 E17G26    29.88S
OSKALOOSA *    LGT RAIN  46  45  97 E21G31    29.87F
OTTUMWA        LGT RAIN  48  47  96 E26G37    29.85F FOG
WASHINGTON *   LGT RAIN  46  46 100 E18G24    29.95S
$$

ABBREVIATIONS USED IN REMARKS
   TC - TEMPERATURES IN CELSIUS
  WCI - WIND CHILL INDEX
   HX - HEAT INDEX
  VSB - VISIBILITY
$$





USA.gov is the U.S. government's official web portal to all federal, state and local government web resources and services.